Terminal Aerodrome Forecast
Issued by NWS

Home | Current Version | Previous Version | Text Only | Print | Product List | Glossary On
Versions: 1 2 3 4 5 6 7 8 9 10 11 12 13 14 15 16 17 18 19 20
000
FTUS43 KDLH 202300
TAFHYR
TAF
KHYR 202326Z 2100/2124 VRB04KT P6SM SKC
     FM210800 VRB03KT 4SM BR SCT080
     FM211400 17007KT P6SM VCSH BKN040
     FM211700 33012G23KT P6SM SCT040=

USA.gov is the U.S. government's official web portal to all federal, state and local government web resources and services.